�������l�o���
Date,Time,MP-1(��Sv/h),MP-2(��Sv/h),MP-3(��Sv/h),MP-4(��Sv/h),MP-5(��Sv/h),MP-6(��Sv/h),MP-7(��Sv/h),����,����(m/s),���J
2019/09/15,00:00,0.185,0.166,0.282,0.263,0.266,0.143,0.088,��쐼,7.0,��
2019/09/15,00:10,0.187,0.164,0.280,0.267,0.265,0.142,0.087,��쐼,7.3,��
2019/09/15,00:20,0.186,0.165,0.282,0.265,0.264,0.141,0.088,��쐼,7.0,��
2019/09/15,00:30,0.188,0.164,0.282,0.264,0.266,0.143,0.088,��,7.4,��
2019/09/15,00:40,0.186,0.165,0.281,0.266,0.262,0.141,0.088,��쐼,7.0,��
2019/09/15,00:50,0.186,0.164,0.282,0.264,0.267,0.143,0.088,��,6.5,��
2019/09/15,01:00,0.186,0.164,0.280,0.266,0.265,0.141,0.087,��쐼,5.9,��
2019/09/15,01:10,0.185,0.164,0.283,0.265,0.265,0.142,0.088,��,5.9,��
2019/09/15,01:20,0.187,0.165,0.281,0.265,0.266,0.142,0.087,��쐼,5.7,��
2019/09/15,01:30,0.185,0.165,0.282,0.267,0.264,0.142,0.088,��쐼,5.4,��
2019/09/15,01:40,0.186,0.165,0.281,0.265,0.267,0.142,0.086,��쐼,5.5,��
2019/09/15,01:50,0.186,0.164,0.280,0.266,0.264,0.142,0.088,��쐼,5.5,��
2019/09/15,02:00,0.187,0.164,0.283,0.265,0.265,0.142,0.087,��쐼,5.5,��
2019/09/15,02:10,0.186,0.164,0.280,0.265,0.264,0.143,0.087,��쐼,5.5,��
2019/09/15,02:20,0.186,0.166,0.282,0.264,0.266,0.143,0.087,��쐼,5.1,��
2019/09/15,02:30,0.187,0.164,0.281,0.266,0.265,0.141,0.088,��쐼,4.8,��
2019/09/15,02:40,0.185,0.164,0.283,0.266,0.263,0.143,0.087,�쐼,4.1,��
2019/09/15,02:50,0.186,0.164,0.281,0.264,0.267,0.142,0.088,��쐼,3.6,��
2019/09/15,03:00,0.186,0.165,0.282,0.266,0.263,0.141,0.087,��쐼,3.3,��
2019/09/15,03:10,0.187,0.163,0.281,0.264,0.266,0.142,0.087,��쐼,3.2,��
2019/09/15,03:20,0.184,0.164,0.283,0.266,0.264,0.141,0.087,��쐼,3.0,��
2019/09/15,03:30,0.186,0.165,0.282,0.264,0.264,0.142,0.087,�쐼,2.5,��
2019/09/15,03:40,0.186,0.165,0.282,0.266,0.265,0.142,0.088,�쐼,1.4,��
2019/09/15,03:50,0.187,0.165,0.282,0.264,0.264,0.141,0.087,�쐼,1.3,��
2019/09/15,04:00,0.187,0.165,0.281,0.266,0.265,0.142,0.088,�쐼,0.6,��
2019/09/15,04:10,0.187,0.164,0.283,0.264,0.264,0.142,0.087,-,CALM,��
2019/09/15,04:20,0.185,0.164,0.280,0.266,0.264,0.142,0.088,-,CALM,��
2019/09/15,04:30,0.188,0.165,0.283,0.266,0.263,0.142,0.088,-,CALM,��
2019/09/15,04:40,0.186,0.164,0.281,0.264,0.265,0.143,0.088,-,CALM,��
2019/09/15,04:50,0.187,0.165,0.283,0.265,0.261,0.143,0.087,-,CALM,��
2019/09/15,05:00,0.187,0.165,0.282,0.266,0.265,0.142,0.088,-,CALM,��
2019/09/15,05:10,0.187,0.165,0.284,0.265,0.264,0.143,0.088,�쓌,1.4,��
2019/09/15,05:20,0.187,0.164,0.281,0.265,0.266,0.142,0.088,��쓌,2.2,��
2019/09/15,05:30,0.187,0.164,0.282,0.264,0.264,0.142,0.088,��,3.0,��
2019/09/15,05:40,0.188,0.164,0.282,0.264,0.266,0.142,0.087,��쓌,3.0,��
2019/09/15,05:50,0.187,0.165,0.284,0.266,0.263,0.142,0.088,��쓌,2.6,��
2019/09/15,06:00,0.187,0.164,0.281,0.266,0.266,0.143,0.088,��쓌,2.4,��
2019/09/15,06:10,0.187,0.164,0.282,0.267,0.264,0.143,0.087,��쓌,2.1,��
2019/09/15,06:20,0.187,0.164,0.282,0.265,0.266,0.142,0.088,��쓌,1.1,��
2019/09/15,06:30,0.186,0.164,0.283,0.266,0.265,0.142,0.088,��,1.3,��
2019/09/15,06:40,0.187,0.165,0.281,0.264,0.265,0.142,0.088,��쐼,1.4,��
2019/09/15,06:50,0.185,0.164,0.283,0.266,0.266,0.143,0.089,��,1.5,��
2019/09/15,07:00,0.186,0.165,0.282,0.264,0.263,0.142,0.087,��,0.7,��
2019/09/15,07:10,0.185,0.165,0.282,0.266,0.266,0.143,0.086,-,CALM,��
2019/09/15,07:20,0.188,0.165,0.283,0.266,0.265,0.143,0.088,-,CALM,��
2019/09/15,07:30,0.187,0.165,0.281,0.263,0.264,0.142,0.087,-,CALM,��
2019/09/15,07:40,0.187,0.164,0.282,0.265,0.267,0.143,0.087,-,CALM,��
2019/09/15,07:50,0.187,0.164,0.280,0.265,0.264,0.143,0.087,��,1.0,��
2019/09/15,08:00,0.185,0.164,0.283,0.263,0.262,0.142,0.087,��,2.4,��
2019/09/15,08:10,0.187,0.165,0.283,0.263,0.267,0.143,0.088,��,0.8,��
2019/09/15,08:20,0.185,0.165,0.281,0.263,0.266,0.143,0.088,���쓌,1.0,��
2019/09/15,08:30,0.186,0.164,0.283,0.262,0.263,0.142,0.087,���쓌,1.9,��
2019/09/15,08:40,0.187,0.163,0.280,0.261,0.262,0.142,0.087,���쓌,1.4,��
2019/09/15,08:50,0.187,0.163,0.282,0.263,0.267,0.142,0.087,���쓌,0.9,��
2019/09/15,09:00,0.186,0.162,0.281,0.263,0.266,0.141,0.088,���쓌,1.9,��
2019/09/15,09:10,0.185,0.163,0.279,0.264,0.263,0.142,0.088,���쓌,2.1,��
2019/09/15,09:20,0.185,0.163,0.281,0.264,0.262,0.142,0.088,���쓌,2.1,��
2019/09/15,09:30,0.185,0.163,0.283,0.264,0.262,0.143,0.088,�쓌,2.1,��
2019/09/15,09:40,0.185,0.162,0.281,0.265,0.263,0.141,0.088,�쓌,2.1,��
2019/09/15,09:50,0.184,0.164,0.279,0.264,0.263,0.141,0.088,�쓌,1.9,��
2019/09/15,10:00,0.186,0.164,0.283,0.266,0.263,0.141,0.087,�쓌,2.6,��
2019/09/15,10:10,0.187,0.165,0.281,0.266,0.264,0.143,0.088,���쓌,2.5,��
2019/09/15,10:20,0.185,0.164,0.279,0.266,0.264,0.143,0.088,���쓌,2.6,��
2019/09/15,10:30,0.186,0.163,0.282,0.266,0.264,0.142,0.088,�쓌,1.9,��
2019/09/15,10:40,0.187,0.165,0.281,0.265,0.265,0.142,0.087,�쓌,2.1,��
2019/09/15,10:50,0.185,0.164,0.282,0.265,0.264,0.143,0.087,�쓌,2.3,��
2019/09/15,11:00,0.186,0.164,0.279,0.265,0.265,0.142,0.088,�쓌,1.8,��
2019/09/15,11:10,0.186,0.164,0.280,0.264,0.264,0.142,0.089,�쓌,2.4,��
2019/09/15,11:20,0.185,0.165,0.279,0.266,0.265,0.142,0.087,�쓌,2.0,��
2019/09/15,11:30,0.185,0.165,0.281,0.265,0.263,0.143,0.088,���쓌,1.7,��
2019/09/15,11:40,0.186,0.164,0.281,0.266,0.265,0.143,0.087,���쓌,2.1,��
2019/09/15,11:50,0.187,0.165,0.281,0.266,0.265,0.143,0.088,���쓌,1.7,��
2019/09/15,12:00,0.186,0.165,0.280,0.265,0.264,0.143,0.088,���쓌,1.9,��
2019/09/15,12:10,0.186,0.164,0.280,0.266,0.264,0.143,0.088,���쓌,1.6,��
2019/09/15,12:20,0.186,0.165,0.280,0.265,0.264,0.143,0.088,���쓌,2.0,��
2019/09/15,12:30,0.186,0.165,0.282,0.265,0.265,0.142,0.088,��,2.3,��
2019/09/15,12:40,0.186,0.164,0.283,0.266,0.265,0.142,0.088,��,2.1,��
2019/09/15,12:50,0.187,0.165,0.282,0.265,0.265,0.142,0.088,��,3.3,��
2019/09/15,13:00,0.185,0.164,0.283,0.265,0.265,0.142,0.086,��,3.6,��
2019/09/15,13:10,0.186,0.165,0.282,0.266,0.265,0.142,0.088,���쓌,3.7,��
2019/09/15,13:20,0.188,0.165,0.281,0.265,0.266,0.143,0.087,��,2.7,��
2019/09/15,13:30,0.187,0.166,0.281,0.264,0.266,0.143,0.088,���k��,2.9,��
2019/09/15,13:40,0.187,0.165,0.281,0.266,0.266,0.142,0.088,��,2.2,��
2019/09/15,13:50,0.186,0.164,0.281,0.266,0.265,0.143,0.087,��,2.5,��
2019/09/15,14:00,0.187,0.165,0.282,0.266,0.264,0.143,0.087,���k��,1.7,��
2019/09/15,14:10,0.187,0.165,0.281,0.266,0.265,0.143,0.088,���k��,2.5,��
2019/09/15,14:20,0.186,0.165,0.280,0.266,0.266,0.142,0.088,�k�k��,1.9,��
2019/09/15,14:30,0.186,0.165,0.282,0.265,0.264,0.143,0.087,���k��,1.6,��
2019/09/15,14:40,0.187,0.165,0.283,0.266,0.264,0.141,0.088,�k��,1.1,��
2019/09/15,14:50,0.187,0.164,0.282,0.265,0.265,0.142,0.087,���k��,2.1,��
2019/09/15,15:00,0.187,0.165,0.281,0.265,0.264,0.143,0.087,���k��,2.0,��
2019/09/15,15:10,0.186,0.165,0.280,0.264,0.264,0.144,0.087,�k��,2.1,��
2019/09/15,15:20,0.186,0.164,0.280,0.265,0.264,0.143,0.087,���k��,2.1,��
2019/09/15,15:30,0.187,0.163,0.280,0.269,0.264,0.143,0.088,���k��,1.4,��
2019/09/15,15:40,0.186,0.165,0.283,0.269,0.265,0.143,0.088,�k��,2.2,��
2019/09/15,15:50,0.185,0.165,0.284,0.266,0.265,0.143,0.088,�k,1.5,��
2019/09/15,16:00,0.185,0.166,0.283,0.265,0.265,0.143,0.088,�k�k��,2.0,��
2019/09/15,16:10,0.186,0.164,0.280,0.268,0.266,0.143,0.088,�k�k��,2.3,��
2019/09/15,16:20,0.189,0.165,0.282,0.270,0.265,0.142,0.087,�k,2.1,��
2019/09/15,16:30,0.188,0.166,0.286,0.266,0.266,0.142,0.087,�k�k��,2.6,��
2019/09/15,16:40,0.187,0.165,0.283,0.266,0.265,0.142,0.087,�k�k��,2.6,��
2019/09/15,16:50,0.186,0.164,0.281,0.270,0.264,0.143,0.088,�k�k��,3.0,��
2019/09/15,17:00,0.189,0.164,0.282,0.268,0.265,0.144,0.087,�k�k��,2.9,��
2019/09/15,17:10,0.188,0.167,0.285,0.267,0.264,0.143,0.087,�k�k��,3.0,��
2019/09/15,17:20,0.187,0.166,0.284,0.265,0.263,0.142,0.087,�k,2.8,��
2019/09/15,17:30,0.185,0.164,0.281,0.267,0.263,0.141,0.088,�k,1.9,��
2019/09/15,17:40,0.188,0.165,0.283,0.269,0.268,0.142,0.088,�k�k��,2.8,��
2019/09/15,17:50,0.187,0.166,0.285,0.265,0.268,0.143,0.087,�k�k��,3.5,��
2019/09/15,18:00,0.186,0.165,0.282,0.267,0.266,0.142,0.088,�k�k��,3.4,��
2019/09/15,18:10,0.188,0.164,0.281,0.268,0.264,0.143,0.088,�k,2.7,��
2019/09/15,18:20,0.189,0.166,0.284,0.265,0.267,0.143,0.088,�k,2.8,��
2019/09/15,18:30,0.186,0.165,0.283,0.265,0.267,0.143,0.088,�k,3.2,��
2019/09/15,18:40,0.186,0.165,0.281,0.269,0.264,0.142,0.087,�k,2.5,��
2019/09/15,18:50,0.188,0.165,0.283,0.267,0.265,0.143,0.088,�k,2.4,��
2019/09/15,19:00,0.188,0.165,0.285,0.266,0.267,0.143,0.087,�k�k��,2.3,��
2019/09/15,19:10,0.186,0.164,0.282,0.267,0.265,0.143,0.088,�k�k��,2.8,��
2019/09/15,19:20,0.187,0.166,0.283,0.267,0.266,0.142,0.088,�k�k��,3.3,��
2019/09/15,19:30,0.187,0.165,0.285,0.266,0.267,0.143,0.087,�k�k��,2.6,��
2019/09/15,19:40,0.186,0.164,0.283,0.265,0.265,0.143,0.087,�k�k��,2.6,��
2019/09/15,19:50,0.185,0.166,0.282,0.268,0.263,0.143,0.089,�k�k��,3.3,��
2019/09/15,20:00,0.189,0.166,0.284,0.268,0.267,0.144,0.088,�k�k��,3.7,��
2019/09/15,20:10,0.187,0.165,0.282,0.264,0.266,0.144,0.088,�k�k��,4.8,��
2019/09/15,20:20,0.186,0.165,0.281,0.268,0.263,0.143,0.088,�k��,4.9,��
2019/09/15,20:30,0.188,0.166,0.285,0.267,0.266,0.144,0.088,�k�k��,5.7,��
2019/09/15,20:40,0.188,0.164,0.282,0.266,0.268,0.143,0.087,�k��,5.1,��
2019/09/15,20:50,0.186,0.164,0.282,0.268,0.263,0.143,0.087,�k��,6.2,��
2019/09/15,21:00,0.185,0.167,0.284,0.267,0.265,0.143,0.088,�k�k��,5.9,�L
2019/09/15,21:10,0.188,0.165,0.284,0.265,0.269,0.144,0.088,�k��,6.2,�L
2019/09/15,21:20,0.187,0.165,0.281,0.266,0.265,0.143,0.089,�k�k��,6.2,�L
2019/09/15,21:30,0.188,0.166,0.284,0.266,0.263,0.143,0.090,�k�k��,6.2,�L
2019/09/15,21:40,0.189,0.164,0.284,0.264,0.266,0.145,0.088,�k�k��,5.9,�L
2019/09/15,21:50,0.187,0.166,0.281,0.265,0.261,0.143,0.089,�k�k��,5.9,�L
2019/09/15,22:00,0.186,0.165,0.283,0.266,0.264,0.143,0.089,�k��,5.7,�L
2019/09/15,22:10,0.187,0.163,0.281,0.262,0.264,0.143,0.089,�k��,5.5,�L
2019/09/15,22:20,0.186,0.166,0.282,0.265,0.262,0.143,0.090,�k�k��,5.0,�L
2019/09/15,22:30,0.187,0.164,0.280,0.263,0.265,0.142,0.089,�k�k��,5.5,�L
2019/09/15,22:40,0.188,0.165,0.278,0.261,0.264,0.143,0.089,�k�k��,5.1,�L
2019/09/15,22:50,0.185,0.165,0.281,0.264,0.260,0.142,0.089,�k�k��,4.1,�L
2019/09/15,23:00,0.186,0.165,0.279,0.262,0.265,0.141,0.089,�k�k��,3.8,�L
2019/09/15,23:10,0.186,0.165,0.277,0.261,0.263,0.142,0.089,�k�k��,3.7,�L
2019/09/15,23:20,0.184,0.164,0.280,0.263,0.262,0.141,0.089,�k�k��,3.9,��
2019/09/15,23:30,0.186,0.164,0.276,0.260,0.265,0.141,0.087,�k��,3.9,�L
2019/09/15,23:40,0.185,0.164,0.277,0.260,0.261,0.143,0.088,�k�k��,3.5,�L
2019/09/15,23:50,0.184,0.163,0.278,0.263,0.262,0.141,0.088,�k�k��,2.8,�L
